STARLINK-36786, 67872

Orbit data source: Space-Track

STARLINK-36786, 67872 is a payload satellite owned by SpaceX/Seattle (US) in LEO that was launched on Fri, 20 Feb 2026 UTC via an FALCON 9 launch vehicle from the Air Force Eastern Test Range (AFETR). Payload-class satellites include a variety of spacecraft equipped with specific instruments for various scientific and technological missions. These include communications satellites like Starlink; space stations such as the ISS; scientific satellites like the Hubble; Earth observation satellites from companies like Planet Labs, Umbra, and HawkEye 360; GPS; miniature CubeSats for education and research; and military/defense satellites.

Loading next visibility...
Identifier
67872, 2026-034Y
Orbit
LEO
Country
Flag of USUS
Related business
Manufacturer
SpaceX/Seattle
Mission
Operational Commercial Communications
Bus & Motor
STARLINK V2MO, Unknown motor
Mass
575 kg wet, ~530 kg dry
Launch date (UTC)
2026-02-20 (4 months ago)
Launch vehicle
FALCON 9
Launch site
Air Force Eastern Test Range (AFETR)
Object type
Payload
Rocket body
Debris
Shape & HBR
Box + 2 Pan, 17.7 m
Radar Cross Section
36.964 m², Large (>1 m²)

Expand to show TLE details & history
Last TLE update: 22 hours ago

TLE from 22 hours ago
0 STARLINK-36786
1 67872U 26034Y   26170.91639178  .00017878  00000-0  58627-3 0  9997
2 67872  53.1599  88.9404 0001370  84.0553 276.0604 15.31712809 19690
Epoch: 2026-06-19T21:59Z
TLE epoch observation values (Epoch: 2026-06-19T21:59:36.249Z)
Latitude
-0.00008°
Longitude
-149.0992°
Altitude
471.503 km
Speed
7.632 km/s
True Right ascension
05h 55m 45s
True Declination
0° 00' 00"
Sunlit
Object was in daylight at epoch
Visualization orbit readout
Latitude
Unknown
Longitude
Unknown
Altitude
Unknown
Speed
Unknown
Apparent Right ascension
Unknown
Apparent Declination
Unknown
Sunlit
N/A
Visualization observer readout
Local Sidereal Time
07:18:09
Azimuth
Unknown
Elevation
Unknown
Doppler factor
Unknown
Orbital elements
Apogee altitude
471.897 km
Perigee altitude
470.02 km
Semi-major axis
6,849.095 km
Eccentricity
0.00014
Inclination
53.1599°
RAAN
88.9404°
Arg. of periapsis
84.0553°
True anomaly
276.04479°
Mean anomaly
276.0604°
Eccentric anomaly
276.05259°
Mean motion
3.82907 °/min
Orbital period
94.02 mins
BSTAR
0.00058627
Loading maneuver chart data...
Computing Atmospheric mass density...
Loading historical data...
Loading historical data...
Loading historical data...
Loading historical data...
Loading historical data...
Loading historical data...
Loading historical data...

Documentation

Showing up to 5 results
|